User: anonymous   Login
Location: Hickory_Viewmont
(35.7830°N, 81.3170°W)
Time: 08:21:48
(UTC-04:00)
Language:

Okean-O - Orbit

View from above orbital plane
View from above orbital plane
View from above satellite
View from above satellite

Ground track
Ground track

The orbit data is extracted from the following two-line orbital elements,

1 25860U 99039A   15184.11233887  .00000199  00000-0  36308-4 0  9996
2 25860 098.0953 152.1875 0000921 083.3661 335.0183 14.76072984858333
Epoch (UTC): 03 July 2015 02:41:46
Eccentricity: 0.0000921
inclination: 98.0953°
perigee height: 641 km
apogee height: 642 km
right ascension of ascending node: 152.1875°
argument of perigee: 83.3661°
revolutions per day: 14.76072984
mean anomaly at epoch: 335.0183°
orbit number at epoch: 85833

The dashed part of the orbit path shows where the satellite is in the earth's shadow,  

DLR